Theta_e
333 336 339 340 340 345 345 347 346 347 349 347 345 344 345 346 345 346 349 349 349 349 346 343 342 342 337 334 334 334 333 332 334 329 329 330 331 332 334 336 338 339 343
330 333 337 338 338 340 343 344 347 348 349 346 345 344 343 343 345 346 348 350 348 348 345 343 340 338 335 332 332 331 329 330 332 327 322 319 324 327 330 331 335 333 338
330 332 335 336 339 339 340 343 345 348 349 347 346 346 346 344 340 338 342 345 349 350 348 340 336 335 332 332 331 330 328 325 329 329 325 316 314 320 326 329 330 329 330
333 333 335 337 339 340 343 343 346 346 348 347 345 343 341 335 333 334 331 333 338 336 337 336 336 333 332 331 331 332 329 327 323 327 331 327 326 317 316 323 325 327 328
334 333 336 338 340 342 344 345 347 346 347 346 347 344 336 332 331 329 327 328 328 332 335 337 334 332 330 330 329 328 327 328 326 325 324 323 323 322 318 315 318 322 325
335 336 338 339 340 343 344 347 346 346 347 346 344 342 334 327 327 325 324 324 323 331 336 335 331 330 329 329 328 328 327 327 326 325 324 322 319 318 318 316 315 316 320
335 335 336 337 338 341 344 346 346 345 346 345 339 335 327 327 326 325 322 326 327 328 330 329 330 328 327 328 328 327 325 326 325 323 323 323 323 322 321 318 315 313 315
335 336 338 338 338 341 344 346 345 344 344 339 333 325 325 324 324 323 326 325 326 329 329 329 330 328 329 330 329 327 326 326 326 324 324 323 322 322 320 318 313 306 308
333 336 338 339 339 341 343 346 345 345 343 337 329 325 325 325 324 327 328 324 324 330 330 330 330 329 329 330 328 326 326 326 325 325 325 322 322 320 320 317 315 308 301
330 334 337 337 340 343 344 346 348 345 342 332 330 327 327 329 329 329 327 327 328 329 329 329 328 328 329 328 326 325 326 325 324 325 324 323 322 320 319 317 315 312 307
329 331 335 336 338 343 344 345 347 344 336 336 330 327 327 329 329 329 328 329 327 327 328 329 328 329 328 327 326 326 326 325 323 323 324 324 323 320 318 317 315 312 311
328 330 332 334 334 339 342 344 346 343 339 336 331 329 329 329 329 329 328 328 327 328 329 330 329 328 328 328 326 325 326 325 324 324 323 324 325 321 318 316 315 313 312
326 329 330 332 333 336 340 344 345 343 339 336 331 330 331 331 330 330 329 328 328 328 330 328 327 327 327 326 326 325 325 325 324 324 323 323 321 319 318 317 316 315 316
323 326 329 331 332 334 338 344 345 344 339 335 332 330 331 333 332 331 330 329 328 327 327 326 326 326 327 327 327 326 325 325 325 324 323 323 321 320 319 318 318 317 315
321 325 327 328 330 332 337 344 345 342 340 335 333 331 332 334 332 332 331 330 329 329 327 327 327 328 329 330 326 326 326 323 323 323 323 322 325 329 325 320 319 316 315
322 325 326 326 328 332 337 342 343 342 340 336 333 333 333 332 329 329 330 330 328 329 328 327 327 327 329 327 328 329 321 321 320 319 320 320 325 325 328 329 328 323 316
321 323 323 324 324 331 338 339 341 342 338 336 334 334 334 334 332 331 330 328 329 328 328 327 328 327 326 324 324 328 323 321 318 317 317 318 322 324 321 323 324 323 324
317 321 325 328 329 327 336 338 340 339 337 332 334 335 334 332 332 331 330 329 330 328 328 327 326 326 327 322 322 325 323 319 318 317 317 316 315 317 318 316 313 312 312
313 314 318 325 329 333 334 335 334 336 335 332 333 335 334 331 331 329 330 329 329 328 328 326 324 325 326 320 318 319 319 317 315 314 314 316 315 317 320 311 309 309 309
319 319 320 325 330 332 334 333 331 333 333 333 332 333 334 333 331 330 330 329 329 328 327 324 324 324 326 320 316 316 316 313 312 313 314 315 313 313 311 307 305 308 308
319 323 328 329 331 333 332 327 328 328 329 331 331 331 330 330 330 329 330 330 327 324 323 323 325 326 324 322 315 313 314 313 313 311 309 310 311 307 307 308 304 305 308
326 332 330 329 331 331 330 327 325 328 329 330 329 326 329 333 331 329 325 321 323 325 322 322 322 321 321 314 312 311 312 314 310 308 308 307 306 304 306 306 309 310 311
329 328 327 326 326 327 328 325 322 324 325 323 322 323 323 327 327 326 319 318 319 324 322 320 317 316 314 309 307 307 308 310 307 307 306 306 303 303 305 307 309 309 308
323 324 325 322 319 320 322 321 323 326 325 323 322 321 321 320 322 323 322 322 323 322 319 318 316 313 308 306 305 305 304 307 306 304 301 307 306 305 305 302 302 306 307
322 322 321 320 319 321 322 323 323 324 322 320 320 320 322 323 321 310 308 316 310 311 318 315 313 310 306 305 302 300 302 301 299 301 303 302 299 299 297 296 299 303 299
323 321 321 321 320 321 321 321 320 322 318 317 317 316 318 319 317 311 305 301 299 297 297 301 305 301 301 299 297 295 295 293 294 301 300 298 296 293 292 292 293 296 299
Wind_Speed
13 13 14 13 11 10 10 10 8 7 6 4 3 1 3 2 2 3 4 5 4 4 4 3 3 3 3 2 2 1 2 2 2 2 4 4 3 0 3 3 3 5 5
10 12 12 11 12 13 11 9 11 9 8 3 3 3 2 2 2 1 2 4 5 5 5 5 3 4 4 3 1 1 1 0 2 1 1 4 5 3 3 3 3 5 4
17 15 15 14 12 11 11 11 12 11 7 7 3 2 2 2 2 1 1 3 5 5 6 5 5 4 3 3 2 1 2 1 1 2 2 1 2 3 3 3 3 5 3
16 15 16 15 14 13 11 11 10 8 7 8 6 5 4 4 3 2 2 3 3 5 6 6 6 5 3 4 2 2 1 2 1 2 1 1 2 2 4 3 3 5 4
19 18 19 19 18 14 12 10 9 8 8 9 8 6 4 3 2 2 3 2 0 2 5 6 6 4 3 3 4 2 2 2 3 2 2 0 1 0 1 4 4 3 3
20 19 19 15 14 12 12 11 12 11 10 10 8 9 9 7 5 3 4 2 0 0 4 5 5 4 4 4 3 2 2 3 3 3 2 3 3 3 2 2 4 3 4
20 20 19 17 15 17 17 15 15 14 12 12 9 9 9 9 8 6 5 5 3 2 5 4 4 3 4 4 3 3 2 3 2 4 4 3 3 3 3 2 2 2 3
19 21 22 20 20 18 16 16 16 15 12 11 10 8 8 6 5 6 4 4 4 5 5 5 5 5 5 3 3 2 3 3 4 5 4 3 3 3 3 3 3 2 2
21 23 21 20 19 19 19 19 17 15 12 12 9 8 8 7 7 7 5 5 5 4 6 6 6 5 4 4 3 2 3 3 3 5 4 3 3 3 3 3 3 4 2
19 19 19 19 18 20 19 17 16 16 13 11 11 9 9 8 7 6 7 7 6 5 6 6 6 6 5 4 3 3 4 4 4 3 5 4 3 4 3 4 3 3 4
19 18 18 19 20 18 17 17 16 16 14 14 12 10 6 7 7 7 7 7 6 7 7 7 6 6 5 5 4 5 5 6 6 5 6 7 5 4 4 4 3 4 4
17 19 19 20 17 18 17 17 15 17 16 15 13 11 9 8 9 8 8 7 8 7 8 7 6 6 6 5 6 6 5 6 6 7 6 8 4 7 6 5 7 5 5
14 16 14 17 18 17 17 17 16 17 15 15 15 12 12 11 12 10 8 7 7 7 6 6 7 7 6 6 6 6 6 6 7 7 6 7 5 6 5 7 7 5 5
19 16 15 18 18 17 16 16 15 16 15 16 17 17 15 12 11 11 10 9 7 6 6 6 7 6 6 6 6 6 6 6 6 6 6 7 7 8 7 6 8 7 6
14 16 18 17 16 13 12 14 16 17 19 19 18 18 15 11 10 11 11 10 7 8 6 6 6 5 5 5 6 6 6 6 6 6 6 7 8 13 11 4 7 7 6
15 14 12 8 10 12 12 13 15 17 16 18 13 7 4 7 5 6 10 9 7 7 8 7 7 6 5 8 9 8 6 6 6 7 6 6 9 9 11 12 16 10 6
9 10 10 9 7 8 11 15 16 13 13 10 9 11 11 18 21 15 10 10 11 6 7 8 7 7 7 9 9 8 5 6 5 6 6 7 4 8 6 8 8 9 11
9 8 8 7 9 9 11 9 11 13 11 12 15 19 23 19 16 16 12 8 7 8 8 9 6 5 5 8 9 8 5 5 5 6 6 6 7 7 6 5 4 6 6
7 8 7 6 6 9 8 11 10 11 12 16 18 18 21 22 14 11 10 7 5 5 7 3 6 5 5 7 11 6 4 5 5 4 4 4 6 9 5 3 5 7 7
4 7 6 6 6 5 9 10 10 10 11 9 10 11 10 11 10 10 8 5 5 7 5 6 6 8 7 9 11 7 3 3 3 4 4 6 5 5 4 3 2 7 7
5 6 3 3 1 6 11 8 7 7 5 6 6 6 4 6 6 5 5 7 1 5 6 7 5 6 5 6 8 7 4 3 2 3 3 4 3 1 4 3 3 5 7
6 4 5 4 4 7 11 10 9 8 8 8 8 8 8 7 7 10 7 9 13 11 3 3 5 4 5 4 2 7 5 3 3 4 2 3 3 2 4 4 7 9 8
8 7 3 7 6 5 9 11 5 8 9 8 7 6 6 6 7 8 7 9 10 12 6 5 4 3 2 3 7 6 4 4 2 2 3 6 4 1 4 6 8 8 4
4 3 6 8 5 6 9 11 8 9 10 8 5 5 2 5 4 4 4 5 7 8 6 4 4 3 3 3 1 1 2 2 0 3 2 4 3 3 3 4 5 4 4
4 5 7 6 4 8 10 9 8 9 9 7 5 3 2 2 5 6 3 1 1 4 4 3 4 5 4 3 3 2 1 1 1 0 3 2 3 3 4 4 5 4 4
3 8 6 8 9 6 6 6 6 7 7 5 3 3 3 3 3 4 4 9 4 5 4 7 5 3 7 4 4 7 8 7 6 2 3 2 2 2 4 4 5 4 7
Wind_Direction
195 187 189 177 175 181 172 180 167 184 159 181 166 195 224 224 229 217 225 199 199 183 157 131 139 116 111 93 53 87 55 42 5 0 326 317 9 91 316 352 18 13 349
183 181 187 184 174 180 187 177 191 185 191 171 162 159 170 214 227 153 229 204 181 160 152 153 140 138 108 88 87 86 98 346 7 143 75 354 335 326 25 30 38 23 357
188 185 181 183 187 182 184 182 191 185 187 180 124 87 62 50 7 356 219 202 179 159 143 139 142 130 129 152 166 171 161 139 308 317 150 97 258 330 329 355 21 4 1
199 188 183 185 187 195 187 182 188 183 190 175 164 159 172 185 221 190 180 142 157 133 140 147 149 157 159 146 160 162 160 124 143 347 343 305 160 216 322 324 326 339 339
194 194 190 190 190 186 184 182 179 182 181 181 177 167 166 178 174 127 141 135 2 174 161 154 151 150 154 163 164 177 178 179 161 181 187 259 44 286 252 293 311 330 293
199 196 197 190 189 184 181 181 183 193 183 181 183 176 172 168 152 169 168 188 206 207 168 152 159 161 176 178 190 185 193 197 192 179 185 174 171 196 182 253 294 276 294
196 194 189 187 189 190 191 186 188 196 192 183 180 182 171 162 169 176 179 170 164 167 171 162 173 175 196 191 191 198 213 220 195 185 190 188 199 171 182 176 255 291 305
195 195 192 189 196 196 196 193 191 197 189 182 180 170 161 165 173 181 180 178 179 180 172 179 185 206 201 200 216 219 221 220 227 213 210 193 212 188 174 175 161 305 299
195 197 196 193 195 198 198 193 196 197 185 182 166 170 166 165 179 188 176 175 185 185 180 184 193 214 224 214 204 232 244 234 218 227 227 216 220 205 189 179 169 163 244
194 198 196 192 199 201 202 198 193 195 181 170 174 174 178 174 181 171 178 180 180 187 173 186 200 208 225 226 215 247 258 244 255 246 235 245 215 215 211 195 187 187 184
194 194 196 196 201 200 197 197 191 185 177 181 168 161 177 167 181 174 179 189 180 182 188 196 206 214 228 237 232 245 256 235 237 246 227 240 218 212 211 212 206 215 188
191 195 196 196 195 199 197 195 191 189 184 179 169 169 173 174 184 189 195 189 197 188 193 196 202 215 228 239 236 251 248 239 244 246 232 242 206 229 216 203 222 223 214
190 198 195 200 204 199 198 196 191 196 181 174 174 173 184 189 194 188 197 198 200 199 196 194 199 211 226 233 244 241 255 250 244 247 235 253 234 240 223 218 224 225 232
196 189 193 204 208 205 196 191 195 194 185 180 180 183 187 196 197 188 193 199 198 193 213 208 207 211 231 235 242 244 252 259 253 257 236 242 233 238 238 228 231 235 236
196 195 199 200 203 200 185 189 198 193 189 188 187 189 180 193 201 194 200 200 177 182 219 231 232 229 230 236 231 242 248 246 272 271 258 249 250 255 240 221 244 228 240
195 197 202 199 198 194 189 193 199 200 192 194 188 56 62 38 344 279 226 195 175 197 172 223 233 222 231 233 232 224 229 241 248 265 289 280 281 275 278 256 246 243 228
172 179 191 185 179 179 177 195 201 197 199 178 153 130 141 185 217 224 222 209 208 181 179 213 219 224 228 229 241 233 224 233 233 247 265 280 264 268 267 278 280 269 267
173 191 180 190 208 199 194 179 189 197 170 152 150 153 173 228 220 219 211 206 190 195 189 218 209 229 252 252 250 250 229 232 242 242 244 257 282 278 272 274 280 276 278
167 168 171 186 184 183 177 171 182 186 164 164 170 187 185 210 214 208 205 197 172 194 202 169 187 209 293 299 284 257 198 234 255 264 268 280 282 290 284 280 299 299 291
145 146 162 184 162 189 157 163 178 181 194 166 180 187 207 216 208 203 189 173 180 212 156 136 163 210 214 231 239 207 185 244 268 296 288 285 286 323 4 309 318 297 294
49 65 79 144 100 135 132 122 140 168 142 116 109 110 129 123 86 62 14 339 278 130 180 168 190 238 252 248 244 198 167 221 254 268 301 298 289 146 315 284 257 252 292
16 71 93 58 97 152 123 135 138 141 133 125 112 111 106 110 102 104 101 51 337 288 203 218 256 265 266 247 185 174 180 175 213 264 251 283 217 231 280 298 295 313 310
9 5 67 80 37 67 118 121 104 103 95 97 112 124 139 146 143 130 124 137 198 249 226 213 233 230 146 88 81 97 101 117 198 238 264 270 183 344 296 316 328 333 318
41 39 61 81 63 71 85 107 122 124 119 121 141 171 209 110 123 112 157 188 198 220 226 195 216 187 146 153 156 56 42 42 25 315 288 151 119 31 333 351 335 328 333
83 74 86 101 110 121 128 140 139 129 134 153 186 228 271 152 93 65 42 341 103 254 205 194 170 163 164 190 175 182 243 207 101 1 95 61 28 354 345 345 327 333 334
156 116 141 164 159 142 137 118 134 133 151 175 124 111 110 93 129 129 104 55 36 34 99 118 124 67 105 101 355 285 246 201 177 93 92 60 14 3 337 336 324 328 333